SCP
-0 -0 0 0 0 -0 -0 -0 -0 0 0 0 0 0 0 0 0 0 0 0 0 0 0 0 0 0 0 0 0 0 0 0 0 0 0 0 0 0 0 0 0 0 0
0 -0 -0 0 0 -0 -0 -0 -0 -0 0 0 0 0 0 0 0 0 0 0 0 0 0 0 0 0 0 0 0 0 0 0 0 0 0 0 0 0 0 0 0 0 0
-0 0 -0 -0 0 0 -0 -0 -0 -0 -0 0 0 0 0 0 0 0 0 0 0 0 0 1 0 0 0 0 0 0 0 0 0 0 0 0 0 0 0 0 0 0 0
0 -0 -0 0 -0 -0 -0 -0 -0 0 0 0 0 0 0 0 0 0 0 0 0 0 0 0 0 0 0 0 0 0 0 0 0 0 0 0 0 0 0 0 0 0 0
0 0 -0 0 0 0 -0 -0 0 0 0 0 0 0 0 0 0 0 0 0 0 0 0 0 0 0 -0 0 0 0 0 0 0 0 0 0 0 0 0 0 0 0 0
0 0 0 0 0 0 0 0 0 0 0 0 0 0 0 1 1 1 1 0 0 0 0 0 0 -0 0 0 0 0 0 0 0 0 0 0 0 0 0 0 0 0 0
0 0 0 0 0 0 0 1 1 0 1 1 1 1 1 1 1 1 1 0 0 0 0 0 0 -0 0 0 0 0 0 0 0 0 0 0 0 0 0 0 0 0 0
1 1 1 1 1 0 0 0 3 2 1 2 2 2 2 2 1 1 1 1 1 0 0 0 0 0 0 0 0 0 0 0 0 0 0 0 0 0 0 0 0 0 0
0 0 0 0 0 1 1 0 0 1 4 5 4 4 3 2 1 0 0 0 0 0 0 0 0 0 0 0 0 0 0 0 0 0 0 0 0 0 0 0 0 0 0
0 -0 -0 -0 -0 0 0 1 0 2 3 5 6 3 1 0 0 0 0 0 0 0 0 0 0 0 0 0 0 0 0 0 0 0 0 0 0 0 0 0 0 0 0
-0 -0 -0 -0 -0 -0 0 0 0 0 0 0 0 0 0 0 0 0 0 0 0 0 0 0 0 0 0 0 0 0 0 0 0 0 0 0 0 0 0 0 0 0 0
0 0 0 0 0 0 0 0 0 0 0 0 0 0 -0 -0 0 0 0 0 0 0 0 0 0 0 0 0 0 0 0 0 0 0 0 0 0 0 0 0 0 0 0
0 0 -0 -0 0 0 0 0 0 0 0 0 0 0 0 0 0 0 0 0 0 0 0 0 0 0 0 0 0 0 0 0 0 0 0 0 0 0 0 0 0 0 0
-0 0 0 0 0 -0 0 0 0 0 0 0 0 0 0 0 0 0 0 0 0 0 -0 -0 -0 0 0 0 0 0 0 0 0 0 0 0 0 0 0 0 0 0 0
0 0 0 0 0 0 0 0 0 0 0 0 0 0 0 0 0 0 0 0 -0 -0 -0 0 0 0 0 0 0 0 0 0 0 0 0 0 0 0 0 0 0 0 0
1 0 0 0 0 0 0 0 0 0 0 0 0 0 0 0 0 0 0 0 0 0 0 0 0 0 0 0 0 0 0 0 0 0 0 0 0 0 0 0 0 0 0
0 0 0 0 0 0 0 0 0 0 0 0 0 0 0 0 0 0 0 0 0 0 0 0 0 0 0 0 0 0 0 0 0 0 0 0 0 0 0 0 0 0 0
0 0 0 0 0 0 0 0 0 0 0 0 0 0 0 0 0 0 0 0 0 0 0 0 0 0 0 0 0 0 0 0 0 0 0 0 0 0 0 0 0 0 0
0 0 0 0 0 0 0 0 0 0 0 0 0 0 0 0 0 0 0 0 0 0 0 -0 0 0 0 0 0 0 0 0 0 0 0 0 0 0 0 0 0 0 0
0 0 0 0 0 0 0 0 0 0 0 0 0 0 0 0 0 0 0 0 0 0 0 0 0 0 0 0 0 0 0 0 0 0 0 0 0 0 0 0 0 0 0
0 0 0 0 0 0 0 0 0 0 0 0 0 0 0 0 0 0 0 0 0 0 0 0 0 0 0 0 0 0 -0 -0 -0 0 0 0 0 0 0 0 0 0 0
0 0 0 0 0 0 0 0 0 0 0 0 0 0 0 0 0 0 0 0 0 0 0 0 0 0 0 0 0 0 0 -0 0 0 -0 -0 0 0 0 0 0 0 0
0 0 0 0 0 0 0 0 0 0 0 0 0 0 0 0 0 0 0 0 0 0 0 0 0 0 0 0 0 0 0 0 0 0 -0 -0 -0 0 0 0 0 0 0
0 0 0 0 0 -0 -0 0 0 0 -0 0 0 0 0 0 0 0 0 0 0 0 0 0 0 0 0 0 0 0 0 0 0 0 0 0 0 -0 0 0 0 0 0
0 0 0 0 -0 -0 0 0 0 0 0 0 0 0 0 0 0 0 0 0 0 0 0 0 0 0 0 0 0 0 0 0 0 0 0 0 0 0 0 0 0 0 -0
-0 0 0 0 0 0 0 0 0 0 0 0 0 0 0 0 0 -0 0 0 0 0 0 0 0 0 0 0 0 0 0 0 0 0 0 0 0 0 0 0 0 0 0
Wind_Speed_500mb
63 77 76 76 77 80 79 77 77 72 70 68 67 71 82 72 60 56 48 44 40 38 38 29 35 34 32 33 32 31 35 32 30 33 32 31 29 34 35 36 37 33 28
82 79 86 87 88 89 89 85 83 78 76 72 66 68 66 70 65 56 52 51 49 45 42 39 37 34 41 39 41 42 43 34 31 32 25 24 25 35 35 45 43 36 35
96 93 92 100 99 98 96 94 92 87 83 76 66 66 55 59 64 65 59 62 58 50 45 44 42 43 42 45 48 51 49 42 30 33 25 10 12 17 18 16 41 39 36
96 103 103 102 110 111 102 99 97 94 90 80 73 71 72 68 67 65 56 50 58 58 47 46 46 48 50 49 55 51 52 41 33 29 29 28 28 19 16 32 25 27 28
101 114 116 111 111 111 110 103 101 98 94 87 79 72 75 68 60 60 56 51 55 53 61 53 54 56 58 54 56 46 48 41 32 27 35 33 29 30 36 36 36 35 34
98 113 118 113 113 110 113 107 108 107 100 96 87 79 76 71 64 60 54 52 53 51 60 50 58 54 60 55 54 52 44 41 41 38 42 39 31 29 26 27 27 27 22
10 15 37 54 76 89 112 112 115 115 109 101 98 90 76 72 63 57 51 41 34 41 39 48 47 48 45 51 53 51 43 49 38 38 36 31 24 16 15 18 21 23 28
70 60 37 6 23 27 50 83 116 115 116 110 107 91 77 80 69 62 55 38 64 50 37 28 23 37 54 46 39 23 38 40 14 34 22 18 15 14 16 16 16 19 24
75 71 68 64 44 25 7 28 74 112 117 114 106 91 84 73 67 60 55 47 57 45 33 35 34 51 49 37 32 39 23 26 22 21 14 11 10 13 17 20 22 23 13
60 59 57 45 34 37 28 29 56 70 68 69 67 65 59 53 51 48 45 46 36 29 26 25 31 32 36 17 2 12 21 24 20 11 6 8 11 14 18 20 21 25 28
48 51 49 40 33 36 40 11 39 37 38 43 41 40 23 20 27 18 14 16 14 13 17 17 1 31 38 37 34 20 19 15 13 8 7 7 10 16 17 21 27 33 32
47 43 38 33 38 30 29 3 20 23 33 22 19 16 18 47 27 18 5 5 9 6 3 14 28 24 19 23 20 14 17 12 5 5 8 11 14 21 27 34 36 32 33
43 45 43 35 32 32 32 24 24 29 23 16 13 17 18 16 9 7 12 10 6 16 35 27 27 30 31 25 19 10 8 3 5 12 16 19 23 26 27 29 31 32 33
36 34 33 38 36 41 42 31 32 34 35 33 30 25 19 15 15 6 23 25 27 16 14 31 29 29 26 20 16 11 10 9 8 15 19 24 28 30 30 28 23 28 35
32 29 24 25 28 29 29 30 36 39 30 23 20 19 26 12 10 31 46 21 29 45 36 31 24 18 12 13 8 2 8 16 21 24 24 26 30 30 28 23 24 24 28
24 17 20 19 23 23 30 34 31 18 27 26 28 24 26 42 46 38 48 45 35 21 10 14 8 6 8 6 6 13 20 24 25 25 26 27 27 19 18 26 22 21 23
19 9 14 24 33 33 35 30 25 29 29 38 42 40 38 36 34 35 34 25 17 20 20 17 13 14 14 14 16 19 20 19 21 21 22 19 18 18 20 22 21 22 25
5 14 27 26 32 31 17 18 26 28 35 32 23 19 17 19 20 21 27 25 18 14 13 16 17 17 18 18 21 21 21 21 18 14 10 15 20 19 12 16 20 25 28
13 29 26 22 22 17 20 19 21 27 35 35 33 31 28 32 31 28 23 17 11 10 13 17 18 17 15 18 20 22 22 23 19 14 13 10 11 17 19 25 27 26 22
10 7 9 10 11 21 18 16 31 35 30 23 23 27 28 24 21 18 15 13 11 15 17 17 19 20 23 25 26 27 30 29 25 25 29 30 24 17 16 21 25 28 30
5 17 8 2 17 20 14 25 34 34 26 24 26 27 21 19 18 17 15 14 15 15 17 17 18 21 24 25 29 33 30 31 29 34 46 45 32 24 18 21 23 27 32
16 17 14 9 13 23 17 27 25 28 22 23 21 22 20 18 15 20 18 16 17 14 16 20 18 22 23 24 28 28 31 27 28 29 40 39 29 25 23 22 25 30 32
7 15 19 42 46 33 22 23 17 32 25 19 20 23 21 19 15 20 20 17 13 13 19 18 19 20 20 18 20 22 26 25 18 26 34 40 29 28 29 28 36 37 47
26 40 38 31 28 14 18 36 29 19 13 21 18 12 13 14 17 20 18 14 11 13 16 15 14 14 19 17 10 15 24 20 20 22 28 30 39 36 35 36 40 47 53
35 34 33 28 33 28 29 27 23 20 15 12 9 10 12 13 14 18 19 13 9 8 7 7 8 7 11 13 13 19 24 23 26 27 27 29 36 43 49 45 47 53 62
26 28 32 31 26 19 16 13 6 5 4 1 7 11 15 14 16 19 19 18 17 12 6 6 6 7 10 14 15 12 17 17 18 25 27 28 30 36 45 48 51 54 66
Wind_Direction_500mb
218 216 216 216 219 220 222 225 224 226 226 226 225 224 230 231 227 224 228 234 237 243 247 248 241 226 228 235 248 243 249 256 259 268 257 251 240 240 249 258 260 271 277
217 221 219 219 220 221 222 225 228 228 228 230 233 227 228 230 232 228 225 233 238 240 246 253 252 243 234 242 247 252 251 249 260 247 251 260 240 252 252 239 249 266 268
220 223 219 221 221 222 224 226 229 229 227 233 235 230 229 230 228 227 228 230 236 240 245 254 260 256 248 255 255 258 245 252 256 247 249 253 259 254 250 265 249 256 258
225 228 224 220 222 227 226 228 231 232 230 230 229 229 227 224 226 231 231 228 233 239 240 247 253 267 258 249 246 250 251 256 252 245 253 255 274 283 279 268 246 258 269
223 225 228 226 227 229 230 230 230 233 233 232 233 231 228 228 231 233 232 228 234 228 231 233 255 260 266 258 256 256 257 260 261 242 259 258 255 262 269 274 256 253 254
222 225 231 232 229 229 231 231 231 232 234 233 233 234 233 229 230 227 226 233 242 245 248 228 249 254 256 258 259 260 253 250 252 248 245 253 267 276 257 258 265 277 278
98 271 253 249 238 231 232 234 235 233 232 232 233 234 235 237 233 227 228 238 252 258 264 262 245 254 251 254 256 259 284 254 242 241 244 252 265 253 248 259 276 289 298
81 78 78 102 225 238 241 246 242 236 235 233 234 232 233 233 231 228 224 235 252 246 256 253 261 285 270 274 269 246 281 259 247 243 244 238 219 240 264 275 282 295 302
67 68 67 67 70 64 272 289 252 248 241 236 229 226 233 232 230 229 235 241 232 242 224 222 248 290 272 266 273 276 260 222 216 216 212 222 245 257 279 295 303 310 318
55 42 31 20 9 352 344 304 291 245 236 232 225 223 221 229 232 231 241 221 227 228 256 289 289 278 277 275 158 212 160 171 172 178 229 286 295 307 314 314 315 317 311
38 30 25 21 27 22 31 353 239 227 220 212 202 186 138 96 354 295 208 222 208 241 264 287 13 108 91 106 118 121 153 168 179 186 259 272 299 308 305 309 305 305 300
34 31 31 37 64 47 20 14 233 225 254 240 208 323 346 313 264 238 278 338 18 17 248 127 125 113 98 111 122 150 171 192 224 338 312 311 304 299 300 298 300 299 295
64 62 69 62 49 50 55 74 80 89 103 94 69 53 72 99 81 335 330 319 88 103 110 98 98 98 100 108 115 169 193 234 316 337 319 301 296 305 304 300 299 297 296
78 81 75 73 76 84 94 96 91 76 70 62 57 63 81 110 123 160 176 139 100 60 88 109 98 103 129 144 149 174 200 212 251 285 283 284 285 291 303 300 296 296 291
77 86 92 109 108 106 103 90 90 93 71 61 74 91 104 78 145 135 123 83 97 102 102 109 112 114 123 121 134 182 303 302 300 296 290 286 289 293 301 298 303 302 294
54 74 91 110 118 118 108 115 110 55 41 75 88 103 108 120 120 118 103 102 104 112 148 128 95 76 89 66 348 325 318 313 305 298 297 299 303 308 310 308 306 293 285
31 78 129 120 128 125 123 100 56 61 83 99 111 107 108 104 103 112 124 115 110 102 95 81 60 47 39 27 10 360 352 342 320 313 323 335 344 331 314 309 290 259 280
61 132 126 121 118 112 92 63 71 90 96 95 99 100 107 108 110 114 118 119 110 86 60 47 51 35 31 21 11 2 349 346 350 346 2 25 9 5 354 328 313 306 304
113 139 130 124 127 115 108 99 104 106 108 104 98 91 85 95 105 110 114 107 83 53 39 36 28 26 42 38 32 31 28 23 22 20 31 24 6 338 336 346 340 332 327
121 144 107 114 115 119 105 95 116 113 103 98 102 101 103 102 99 97 85 77 60 44 40 49 60 52 61 50 33 21 17 26 30 23 26 27 14 4 348 349 348 345 342
65 130 79 123 138 126 120 133 127 121 112 114 110 115 108 97 88 81 63 34 38 34 70 60 70 71 58 35 21 21 31 35 38 39 25 15 1 1 4 345 346 348 343
82 99 99 127 138 135 138 132 115 124 118 117 123 113 92 79 63 41 37 36 42 48 64 83 88 70 51 36 40 42 36 30 29 24 20 14 17 15 10 360 353 348 343
102 50 93 77 79 82 118 137 121 127 113 113 113 99 61 51 56 44 44 45 57 79 74 83 85 73 50 44 40 33 25 18 355 6 13 28 26 14 12 12 11 5 0
108 93 84 83 87 86 103 124 73 119 113 111 97 78 45 60 80 53 52 33 49 58 83 80 84 79 43 35 27 17 360 4 8 15 20 24 22 13 13 7 6 1 356
102 93 91 88 88 90 95 97 97 107 122 127 102 87 101 86 88 60 41 42 76 94 82 85 56 43 16 21 14 2 17 24 26 21 17 14 16 13 11 8 4 0 357
113 118 120 121 125 123 116 104 70 359 331 184 125 135 135 123 76 39 48 80 97 115 100 43 12 350 342 347 342 11 15 32 15 12 11 12 7 5 3 2 359 359 357
Wind_Speed_850mb
63 77 76 76 77 80 79 77 77 72 70 68 67 71 82 72 60 56 48 44 40 38 38 29 35 34 32 33 32 31 35 32 30 33 32 31 29 34 35 36 37 33 28
82 79 86 87 88 89 89 85 83 78 76 72 66 68 66 70 65 56 52 51 49 45 42 39 37 34 41 39 41 42 43 34 31 32 25 24 25 35 35 45 43 36 35
96 93 92 100 99 98 96 94 92 87 83 76 66 66 55 59 64 65 59 62 58 50 45 44 42 43 42 45 48 51 49 42 30 33 25 10 12 17 18 16 41 39 36
96 103 103 102 110 111 102 99 97 94 90 80 73 71 72 68 67 65 56 50 58 58 47 46 46 48 50 49 55 51 52 41 33 29 29 28 28 19 16 32 25 27 28
101 114 116 111 111 111 110 103 101 98 94 87 79 72 75 68 60 60 56 51 55 53 61 53 54 56 58 54 56 46 48 41 32 27 35 33 29 30 36 36 36 35 34
98 113 118 113 113 110 113 107 108 107 100 96 87 79 76 71 64 60 54 52 53 51 60 50 58 54 60 55 54 52 44 41 41 38 42 39 31 29 26 27 27 27 22
10 15 37 54 76 89 112 112 115 115 109 101 98 90 76 72 63 57 51 41 34 41 39 48 47 48 45 51 53 51 43 49 38 38 36 31 24 16 15 18 21 23 28
70 60 37 6 23 27 50 83 116 115 116 110 107 91 77 80 69 62 55 38 64 50 37 28 23 37 54 46 39 23 38 40 14 34 22 18 15 14 16 16 16 19 24
75 71 68 64 44 25 7 28 74 112 117 114 106 91 84 73 67 60 55 47 57 45 33 35 34 51 49 37 32 39 23 26 22 21 14 11 10 13 17 20 22 23 13
60 59 57 45 34 37 28 29 56 70 68 69 67 65 59 53 51 48 45 46 36 29 26 25 31 32 36 17 2 12 21 24 20 11 6 8 11 14 18 20 21 25 28
48 51 49 40 33 36 40 11 39 37 38 43 41 40 23 20 27 18 14 16 14 13 17 17 1 31 38 37 34 20 19 15 13 8 7 7 10 16 17 21 27 33 32
47 43 38 33 38 30 29 3 20 23 33 22 19 16 18 47 27 18 5 5 9 6 3 14 28 24 19 23 20 14 17 12 5 5 8 11 14 21 27 34 36 32 33
43 45 43 35 32 32 32 24 24 29 23 16 13 17 18 16 9 7 12 10 6 16 35 27 27 30 31 25 19 10 8 3 5 12 16 19 23 26 27 29 31 32 33
36 34 33 38 36 41 42 31 32 34 35 33 30 25 19 15 15 6 23 25 27 16 14 31 29 29 26 20 16 11 10 9 8 15 19 24 28 30 30 28 23 28 35
32 29 24 25 28 29 29 30 36 39 30 23 20 19 26 12 10 31 46 21 29 45 36 31 24 18 12 13 8 2 8 16 21 24 24 26 30 30 28 23 24 24 28
24 17 20 19 23 23 30 34 31 18 27 26 28 24 26 42 46 38 48 45 35 21 10 14 8 6 8 6 6 13 20 24 25 25 26 27 27 19 18 26 22 21 23
19 9 14 24 33 33 35 30 25 29 29 38 42 40 38 36 34 35 34 25 17 20 20 17 13 14 14 14 16 19 20 19 21 21 22 19 18 18 20 22 21 22 25
5 14 27 26 32 31 17 18 26 28 35 32 23 19 17 19 20 21 27 25 18 14 13 16 17 17 18 18 21 21 21 21 18 14 10 15 20 19 12 16 20 25 28
13 29 26 22 22 17 20 19 21 27 35 35 33 31 28 32 31 28 23 17 11 10 13 17 18 17 15 18 20 22 22 23 19 14 13 10 11 17 19 25 27 26 22
10 7 9 10 11 21 18 16 31 35 30 23 23 27 28 24 21 18 15 13 11 15 17 17 19 20 23 25 26 27 30 29 25 25 29 30 24 17 16 21 25 28 30
5 17 8 2 17 20 14 25 34 34 26 24 26 27 21 19 18 17 15 14 15 15 17 17 18 21 24 25 29 33 30 31 29 34 46 45 32 24 18 21 23 27 32
16 17 14 9 13 23 17 27 25 28 22 23 21 22 20 18 15 20 18 16 17 14 16 20 18 22 23 24 28 28 31 27 28 29 40 39 29 25 23 22 25 30 32
7 15 19 42 46 33 22 23 17 32 25 19 20 23 21 19 15 20 20 17 13 13 19 18 19 20 20 18 20 22 26 25 18 26 34 40 29 28 29 28 36 37 47
26 40 38 31 28 14 18 36 29 19 13 21 18 12 13 14 17 20 18 14 11 13 16 15 14 14 19 17 10 15 24 20 20 22 28 30 39 36 35 36 40 47 53
35 34 33 28 33 28 29 27 23 20 15 12 9 10 12 13 14 18 19 13 9 8 7 7 8 7 11 13 13 19 24 23 26 27 27 29 36 43 49 45 47 53 62
26 28 32 31 26 19 16 13 6 5 4 1 7 11 15 14 16 19 19 18 17 12 6 6 6 7 10 14 15 12 17 17 18 25 27 28 30 36 45 48 51 54 66
Wind_Direction_850mb
218 216 216 216 219 220 222 225 224 226 226 226 225 224 230 231 227 224 228 234 237 243 247 248 241 226 228 235 248 243 249 256 259 268 257 251 240 240 249 258 260 271 277
217 221 219 219 220 221 222 225 228 228 228 230 233 227 228 230 232 228 225 233 238 240 246 253 252 243 234 242 247 252 251 249 260 247 251 260 240 252 252 239 249 266 268
220 223 219 221 221 222 224 226 229 229 227 233 235 230 229 230 228 227 228 230 236 240 245 254 260 256 248 255 255 258 245 252 256 247 249 253 259 254 250 265 249 256 258
225 228 224 220 222 227 226 228 231 232 230 230 229 229 227 224 226 231 231 228 233 239 240 247 253 267 258 249 246 250 251 256 252 245 253 255 274 283 279 268 246 258 269
223 225 228 226 227 229 230 230 230 233 233 232 233 231 228 228 231 233 232 228 234 228 231 233 255 260 266 258 256 256 257 260 261 242 259 258 255 262 269 274 256 253 254
222 225 231 232 229 229 231 231 231 232 234 233 233 234 233 229 230 227 226 233 242 245 248 228 249 254 256 258 259 260 253 250 252 248 245 253 267 276 257 258 265 277 278
98 271 253 249 238 231 232 234 235 233 232 232 233 234 235 237 233 227 228 238 252 258 264 262 245 254 251 254 256 259 284 254 242 241 244 252 265 253 248 259 276 289 298
81 78 78 102 225 238 241 246 242 236 235 233 234 232 233 233 231 228 224 235 252 246 256 253 261 285 270 274 269 246 281 259 247 243 244 238 219 240 264 275 282 295 302
67 68 67 67 70 64 272 289 252 248 241 236 229 226 233 232 230 229 235 241 232 242 224 222 248 290 272 266 273 276 260 222 216 216 212 222 245 257 279 295 303 310 318
55 42 31 20 9 352 344 304 291 245 236 232 225 223 221 229 232 231 241 221 227 228 256 289 289 278 277 275 158 212 160 171 172 178 229 286 295 307 314 314 315 317 311
38 30 25 21 27 22 31 353 239 227 220 212 202 186 138 96 354 295 208 222 208 241 264 287 13 108 91 106 118 121 153 168 179 186 259 272 299 308 305 309 305 305 300
34 31 31 37 64 47 20 14 233 225 254 240 208 323 346 313 264 238 278 338 18 17 248 127 125 113 98 111 122 150 171 192 224 338 312 311 304 299 300 298 300 299 295
64 62 69 62 49 50 55 74 80 89 103 94 69 53 72 99 81 335 330 319 88 103 110 98 98 98 100 108 115 169 193 234 316 337 319 301 296 305 304 300 299 297 296
78 81 75 73 76 84 94 96 91 76 70 62 57 63 81 110 123 160 176 139 100 60 88 109 98 103 129 144 149 174 200 212 251 285 283 284 285 291 303 300 296 296 291
77 86 92 109 108 106 103 90 90 93 71 61 74 91 104 78 145 135 123 83 97 102 102 109 112 114 123 121 134 182 303 302 300 296 290 286 289 293 301 298 303 302 294
54 74 91 110 118 118 108 115 110 55 41 75 88 103 108 120 120 118 103 102 104 112 148 128 95 76 89 66 348 325 318 313 305 298 297 299 303 308 310 308 306 293 285
31 78 129 120 128 125 123 100 56 61 83 99 111 107 108 104 103 112 124 115 110 102 95 81 60 47 39 27 10 360 352 342 320 313 323 335 344 331 314 309 290 259 280
61 132 126 121 118 112 92 63 71 90 96 95 99 100 107 108 110 114 118 119 110 86 60 47 51 35 31 21 11 2 349 346 350 346 2 25 9 5 354 328 313 306 304
113 139 130 124 127 115 108 99 104 106 108 104 98 91 85 95 105 110 114 107 83 53 39 36 28 26 42 38 32 31 28 23 22 20 31 24 6 338 336 346 340 332 327
121 144 107 114 115 119 105 95 116 113 103 98 102 101 103 102 99 97 85 77 60 44 40 49 60 52 61 50 33 21 17 26 30 23 26 27 14 4 348 349 348 345 342
65 130 79 123 138 126 120 133 127 121 112 114 110 115 108 97 88 81 63 34 38 34 70 60 70 71 58 35 21 21 31 35 38 39 25 15 1 1 4 345 346 348 343
82 99 99 127 138 135 138 132 115 124 118 117 123 113 92 79 63 41 37 36 42 48 64 83 88 70 51 36 40 42 36 30 29 24 20 14 17 15 10 360 353 348 343
102 50 93 77 79 82 118 137 121 127 113 113 113 99 61 51 56 44 44 45 57 79 74 83 85 73 50 44 40 33 25 18 355 6 13 28 26 14 12 12 11 5 0
108 93 84 83 87 86 103 124 73 119 113 111 97 78 45 60 80 53 52 33 49 58 83 80 84 79 43 35 27 17 360 4 8 15 20 24 22 13 13 7 6 1 356
102 93 91 88 88 90 95 97 97 107 122 127 102 87 101 86 88 60 41 42 76 94 82 85 56 43 16 21 14 2 17 24 26 21 17 14 16 13 11 8 4 0 357
113 118 120 121 125 123 116 104 70 359 331 184 125 135 135 123 76 39 48 80 97 115 100 43 12 350 342 347 342 11 15 32 15 12 11 12 7 5 3 2 359 359 357